Station ROAM4 - Rock of Ages, MI Image indicating link to RSS feed of recent meteorological observations for station ROAM4


Conditions at ROAM4 as of
(11:00 am EDT)
1500 GMT on 04/20/2024:
     

Click on the graph icon in the table below to see a time series plot of the last five days of that observation.

5-day plot - Wind Direction Wind Direction (WDIR): NW ( 310 deg true )
5-day plot - Wind Speed Wind Speed (WSPD): 17 kts
5-day plot - Wind Gust Wind Gust (GST): 19 kts
5-day plot - Atmospheric Pressure Atmospheric Pressure (PRES):30.11 in
5-day plot - Pressure Tendency Pressure Tendency (PTDY):+0.05 in ( Rising )
5-day plot - Air Temperature Air Temperature (ATMP): 32.2 °F
5-day plot - Wind Chill Wind Chill (CHILL): 20.3 °F
5-day plot - Wind Speed at 10 Meters Wind Speed at 10 meters (WSPD10M): 14 kts
5-day plot - Wind Speed at 20 Meters Wind Speed at 20 meters (WSPD20M): 16 kts
5-day plot -  Wind Speed, Wind Gust and Atmospheric Pressure Combined plot of Wind Speed, Gust, and Air Pressure
Continuous Winds
TIME
(EDT)
5-day plot - Wind Direction WDIR 5-day plot - Wind Speed WSPD
11:00 amNW ( 309 deg ) 18 kts
10:50 amNW ( 311 deg ) 18 kts
10:40 amNW ( 316 deg ) 19 kts
10:30 amNW ( 317 deg ) 20 kts
10:20 amNW ( 310 deg ) 17 kts
10:10 amNW ( 314 deg ) 16 kts
 
Peak gust during the measurement hour
TIME
(EDT)
5-day plot - Gust Direction GDR 5-day plot - Gust Speed GST
10:21 amNW ( 310 deg ) 23 kts
Previous observations
TIME
(EDT)
5-day plot - Wind Direction
WDIR
 
5-day plot - Wind Speed
WSPD
kts
5-day plot - Wind Gust
GST
kts
5-day plot - Wave Height
WVHT
ft
5-day plot - Dominant Wave Period
DPD
sec
5-day plot - Average Wave Period
APD
sec
5-day plot - Mean Wave Direction
MWD
 
5-day plot - Atmospheric Pressure
PRES
in
5-day plot - Pressure Tendency
PTDY
in
5-day plot - Air Temperature
ATMP
°F
5-day plot - Water Temperature
WTMP
°F
5-day plot - Dew Point
DEWP
°F
5-day plot - Salinity
SAL
psu
5-day plot - Visibility
VIS
nmi
5-day plot - Tide (above MLLW)
TIDE
ft
2024-04-20 10:00 am NW 16 18----30.09+0.06 32.0-----
2024-04-20 09:00 am NW 15 18----30.08+0.07 31.1-----
2024-04-20 08:00 amWNW 21 23----30.06+0.05 31.1-----
2024-04-20 07:00 amWNW 24 26----30.03+0.04 31.5-----
2024-04-20 06:00 am NW 21 24----30.01+0.03 32.7-----
2024-04-20 05:00 amWNW 17 19----30.01+0.04 33.4-----
2024-04-20 04:00 amWNW 15 17----29.99+0.04 34.0-----
2024-04-20 03:00 amWNW 14 16----29.98+0.04 34.7-----
2024-04-20 02:00 am W 17 18----29.97+0.03 35.1-----
2024-04-20 01:00 am W 23 26----29.95+0.01 35.2-----
2024-04-20 12:00 am W 25 27----29.95+0.03 35.8-----
2024-04-19 11:00 pm W 22 24----29.94+0.04 36.5-----
2024-04-19 10:00 pm W 20 22----29.94+0.05 36.7-----
2024-04-19 09:00 pm W 21 22----29.92+0.04 37.2-----
2024-04-19 08:00 pm W 21 23----29.91+0.03 37.2-----
2024-04-19 07:00 pmWNW 24 27----29.89+0.03 37.8-----
2024-04-19 06:00 pmWNW 21 23----29.88+0.03 37.8-----
2024-04-19 05:00 pmWSW 26 27----29.88+0.02 36.3-----
2024-04-19 04:00 pmWSW 31 35----29.86+0.01 36.7-----
2024-04-19 03:00 pmWSW 29 31----29.86+0.00 36.5-----
2024-04-19 02:00 pmWSW 28 32----29.85+0.00 36.0-----
2024-04-19 01:00 pmWSW 29 31----29.85+0.00 35.6-----
2024-04-19 12:00 pmWSW 26 28----29.86+0.00 35.1-----
2024-04-19 11:00 amWSW 24 26----29.86+0.00 35.4-----